sat.trackr.live / text

‹ back to catalog

STARLINK-36510

NORAD 67407 · 2026-005D

PAYLOAD ACTIVE UNKNOWN

§ Identity

Operator
Country
US
Launch date
2026-01-12
Launch site
AFETR
Launch vehicle
Mass (kg)
RCS (m²)

Purposes: comms

External: N2YO · Heavens-Above · Gunter

§ Orbital elements

Epoch: 2026-05-24T10:59:03.964128Z

Period
94.27 min
Inclination
43.0032°
Eccentricity
0.0001751
Mean motion
15.27592035 rev/d
Perigee alt
481.8 km
Apogee alt
484.2 km
Semi-major
6,861.2 km
B*
2.8982e-4
RAAN
170.1373°
Arg perigee
275.6832°
Mean anomaly
84.3820°
Rev number
2,028

§ Raw data

STARLINK-365101 67407U 26005D   26144.45768477  .00007724  00000+0  28982-3 0  99932 67407  43.0032 170.1373 0001751 275.6832  84.3820 15.27592035 20283

JSON: /api/v1/satellites/67407 · /tle

For live sub-satellite position, see the globe view (requires WebGL).

§ Visibility from observer

Set your observer location to see the next 7 days of passes ≥ 10°. The values pass through the URL so the page stays shareable.

No JS? Fill the form by hand. The geolocation button needs JavaScript.